#timestamp,LO_Frequency,Hit,StdDev 
1569902415.5,286046999.3,N
1569902435.3,286046998.3,N
1569902455.1,286046998.2,N
1569902475.9,286046998.4,N
1569902495.7,286046999.6,N
1569902515.6,286046999.3,N
1569902535.4,286046998.9,N
1569902555.2,286046996.9,N
1569902575.1,286046999.5,N
1569902576.0,286046999.5,N
1569902595.8,286046998.2,N
1569902615.7,286047000.1,N
1569902635.5,286047002.1,N
1569902655.3,286046999.9,N
1569902675.2,286047000.6,N
1569902695.0,286047001.2,N
1569902695.9,286047001.2,N
1569902715.7,286047000.4,N
1569902735.6,286047002.2,N
1569902755.4,286047000.4,N
1569902775.3,286047002.0,N
1569902795.1,286047000.5,N
1569902815.8,286046999.0,N
1569902835.7,286046996.6,N
1569902855.5,286046997.2,N
1569902875.4,286046999.5,N
1569902895.2,286046999.0,N
1569902915.0,286046997.2,N
1569902915.9,286046997.2,N
1569902935.8,286046998.6,N
1569902955.6,286046999.0,N
1569902975.5,286046998.7,N
1569902995.3,286046999.3,N
1569903015.1,286046998.6,N
1569903035.9,286047000.5,N
1569903055.7,286047000.4,N
1569903075.8,286047002.5,N
1569903095.6,286046998.6,N
1569903115.4,286046999.4,N
1569903135.3,286046999.0,N
1569903155.1,286046999.3,N
1569903175.8,286047000.6,N
1569903195.7,286046998.4,N
1569903215.5,286046999.5,N
1569903235.4,286046998.7,N
1569903255.2,286046999.0,N
1569903275.0,286046999.4,N
1569903275.9,286046999.4,N
1569903295.8,286046998.3,N
1569903315.6,286047000.6,N
1569903335.5,286046999.8,N
1569903355.3,286046999.7,N
1569903375.1,286047000.4,N
1569903395.9,286046998.2,N
1569903415.7,286047000.8,N
1569903435.5,286046999.7,N
1569903455.4,286047000.2,N
1569903475.2,286046998.3,N
1569903495.1,286046998.8,N
1569903496.0,286046998.8,N
1569903545.8,286046998.6,E
1569903555.8,286047002.8,N
1569903575.6,286047000.0,P
1569903595.4,286046999.8,N
1569903615.3,286047001.4,N
1569903635.1,286047001.8,N
1569903655.8,286047002.6,N
1569903675.7,286047002.7,N
1569903695.5,286047002.4,N
1569903715.4,286047002.1,N
1569903735.2,286047000.5,N
1569903755.0,286047001.6,N
1569903755.9,286047001.6,N
1569903775.8,286047004.1,Y
1569903795.6,286047002.3,P
1569903815.5,286047001.4,P
1569903835.3,286047005.5,P
1569903855.1,286047005.7,Y
1569903875.9,286047004.2,P
1569903895.7,286047006.0,P
1569903915.6,286047003.6,N
1569903935.4,286047003.0,N
1569903955.2,286047003.4,N
1569903975.1,286047002.9,N
1569903976.0,286047002.9,N
1569903995.8,286047005.6,Y
1569904015.7,286047002.2,P
1569904035.5,286047002.1,N
1569904055.3,286047002.7,P
1569904075.2,286047002.1,Y
1569904095.0,286046997.0,P
1569904095.9,286046997.0,N
1569904115.7,286046997.7,N
1569904135.6,286046996.9,N
1569904155.4,286046997.0,N
1569904175.3,286046997.0,N
1569904195.1,286046996.7,N
1569904196.0,286046996.7,N
1569904215.8,286046997.5,N
1569904235.7,286046997.3,N
1569904255.5,286046994.9,Y
1569904275.4,286047001.1,P
1569904295.2,286046998.7,N
1569904315.0,286046997.8,N
1569904315.9,286046997.8,N
1569904335.8,286046999.6,N
1569904355.6,286046996.6,N
1569904375.4,286046997.9,N
1569904395.3,286046995.1,Y
1569904415.1,286046996.5,P
1569904465.9,286046999.4,E
1569904475.8,286046999.0,N
1569904495.7,286046999.6,P
1569904515.5,286046999.4,N
1569904535.3,286046996.7,Y
1569904555.2,286046996.7,P
1569904575.0,286046997.4,N
1569904575.9,286046997.4,N
1569904595.8,286046994.9,Y
1569904615.6,286046999.5,P
1569904635.4,286047000.8,N
1569904655.3,286046998.4,N
1569904675.1,286046996.9,N
1569904695.8,286046996.8,N
1569904715.7,286046997.7,N
1569904735.5,286046995.5,Y
1569904755.4,286046997.4,P
1569904775.2,286046998.0,P
1569904795.0,286046995.0,P
1569904795.9,286046995.0,Y
1569904815.8,286046999.0,P
1569904835.6,286046998.7,N
1569904855.5,286046998.2,N
1569904875.3,286046998.6,N
1569904895.1,286047001.1,N
1569904915.9,286047000.2,N
1569904935.7,286047000.0,N
1569904955.6,286046998.6,N
1569904975.4,286046999.5,N
1569904995.2,286046999.5,N
1569905015.1,286046997.1,N
1569905016.0,286046997.1,N
1569905035.8,286046997.9,N
1569905055.6,286046997.4,N
1569905075.5,286046999.1,N
1569905095.3,286046999.4,N
1569905115.2,286047000.6,N
1569905135.9,286046998.5,N
1569905155.7,286046998.2,N
1569905175.6,286046998.5,N
1569905195.4,286046999.4,N
1569905215.3,286046999.5,N
1569905235.1,286046998.3,N
1569905236.0,286046998.3,N
1569905255.8,286047000.8,N
1569905275.7,286046998.5,N
1569905295.5,286047000.1,N
1569905315.3,286047002.0,N
1569905335.2,286047002.2,N
1569905355.0,286047002.0,N
1569905355.9,286047002.0,N
1569905375.8,286047001.6,N
1569905395.6,286047001.8,N
1569905415.4,286047001.5,N
1569905435.3,286047002.3,N
1569905455.1,286046999.7,N
1569905475.9,286046999.9,N
1569905495.7,286047002.4,N
1569905515.5,286047000.8,N
1569905535.4,286047001.1,N
1569905555.2,286047002.4,N
1569905575.0,286047001.8,N
1569905575.9,286047001.8,N
1569905595.8,286047001.3,N
1569905615.6,286047001.9,N
1569905635.5,286047002.3,N
1569905655.3,286047000.2,N
1569905675.1,286047002.7,N
1569905695.9,286047002.2,N
1569905715.7,286047002.0,N
1569905735.5,286047000.8,N
1569905755.4,286047000.8,N
1569905775.2,286047000.7,N
1569905795.1,286047000.6,N
1569905796.0,286047000.6,N
1569905815.8,286047002.4,N
1569905835.6,286047002.0,N
1569905855.5,286047001.8,N
1569905875.3,286047001.9,N
1569905895.2,286047002.5,Y
1569905915.9,286046999.8,P
1569905935.7,286047000.8,N
1569905955.6,286047000.9,N
1569905975.4,286047000.0,N
1569905995.2,286047000.4,N
